Location: Napier
(39.4830°S, 176.9170°E)
Time: 02:18:06
(UTC+12:00)

Cosmos 2322 - Pass Details

Date: 24 January 2019
Orbit: 841 x 855 km, 71.0° (Epoch: 17 April)

Event Time Altitude Azimuth Distance (km) Brightness Sun altitude
Exits shadow 23:17:06 23° 323° (NW) 1,753 5.1 -24.2°
Maximum altitude 23:20:45 67° 246° (WSW) 927 4.0 -24.6°
Drops below altitude 10° 23:26:28 10° 162° (SSE) 2,496 6.6 -25.2°
Sets 23:28:57 0° 159° (SSE) 3,436 7.4 -25.4°
